Flag for Germany Weather past 2 weeks in Warstein, North Rhine-Westphalia, Germany

Now
55 °F

Passing clouds.


Feels Like: 55 °F
Forecast: 38 / 50 °F
Wind: 3 mph from Southeast

Location: Paderborn / Lippstadt

Current Time: Apr 26, 2015 at 7:19:33 PM

Latest Report: Apr 26, 2015 at 6:50 PM


Visibility: N/A

Pressure: 29.68 "Hg

Humidity: 77%

Dew point: 48 °F

Location of WarsteinLocation

Historic Weather in Warstein — Graph

°F

Warstein temperature yesterday

Maximum temperature yesterday: 59 °F (at 1:20 AM)
Minimum temperature yesterday: 48 °F (at 10:50 PM)
Average temperature yesterday: 55 °F

Past Weeks' High & Low Weather Summary

 TemperatureHumidityPressure
High70 °F (Apr 15, 2:20 PM)94% (Apr 25, 5:50 PM)30.45 "Hg (Apr 25, 5:50 PM)
Low28 °F (Apr 19, 6:50 AM)21% (Apr 21, 4:50 PM)29.68 "Hg (Apr 26, 4:20 PM)
Average49 °F62%30.15 "Hg
* Reported Apr 11 6:20 PM — Apr 26 6:20 PM, Warstein, Weather by CustomWeather, © 2015

Note: Actual official high and low records may vary slightly from our data, if they occured in-between our weather recording intervals... More about our weather records

Advertising

Warstein weather history for previous 24 hours

 ConditionsComfort  
Time TempWeatherWind HumidityBarometerVisibility
6:20 PM
Sun, Apr 26
54 °FPassing clouds.1 mph88%29.68 "HgN/A
5:50 PM54 °FScattered showers. Partly sunny.3 mph88%29.68 "HgN/A
5:20 PM54 °FSprinkles. Partly sunny.6 mph88%29.71 "Hg5 mi
4:50 PM57 °FScattered showers. Broken clouds.6 mph77%29.68 "HgN/A
4:20 PM59 °FBroken clouds.5 mph72%29.68 "HgN/A
3:50 PM57 °FScattered showers. Scattered clouds.5 mph77%29.71 "HgN/A
3:20 PM57 °FLight rain. Scattered clouds.2 mph77%29.71 "HgN/A
2:50 PM57 °FScattered clouds.6 mph72%29.71 "HgN/A
2:20 PM57 °FSprinkles. Scattered clouds.5 mph72%29.71 "HgN/A
1:50 PM57 °FSprinkles. Scattered clouds.3 mph72%29.74 "HgN/A
1:20 PM55 °FSprinkles. Scattered clouds.10 mph77%29.74 "HgN/A
12:50 PM59 °FScattered clouds.12 mph63%29.74 "HgN/A
12:20 PM57 °FScattered clouds.13 mph72%29.74 "HgN/A
11:50 AM57 °FScattered clouds.13 mph67%29.74 "HgN/A
11:20 AM55 °FScattered clouds.17 mph72%29.74 "HgN/A
10:50 AM55 °FScattered clouds.12 mph72%29.74 "HgN/A
10:20 AM55 °FScattered clouds.13 mph77%29.74 "HgN/A
9:50 AM55 °FScattered clouds.10 mph77%29.74 "HgN/A
9:20 AM55 °FScattered clouds.9 mph77%29.74 "HgN/A
8:50 AM52 °FPartly sunny.8 mph88%29.74 "HgN/A
8:20 AM52 °FPartly sunny.8 mph88%29.74 "HgN/A
7:50 AM52 °FSunny.5 mph88%29.74 "Hg10 mi
7:20 AM50 °FSunny.2 mph94%29.74 "Hg10 mi
6:50 AM50 °FPassing clouds.1 mph94%29.74 "HgN/A
6:20 AM50 °FLight rain. Passing clouds.5 mph94%29.74 "HgN/A
5:50 AM50 °FLight rain. Partly cloudy.5 mph88%29.74 "HgN/A
5:20 AM50 °FPassing clouds.8 mph88%29.74 "HgN/A
4:50 AM50 °FPassing clouds.8 mph88%29.74 "HgN/A
4:20 AM50 °FPassing clouds.9 mph88%29.74 "HgN/A
3:50 AM50 °FPassing clouds.8 mph88%29.77 "HgN/A
3:20 AM50 °FPassing clouds.9 mph88%29.77 "HgN/A
2:50 AM50 °FPassing clouds.12 mph88%29.77 "HgN/A
2:20 AM50 °FPassing clouds.12 mph88%29.77 "HgN/A
1:50 AM50 °FPassing clouds.10 mph88%29.77 "HgN/A
1:20 AM50 °FClear.10 mph88%29.77 "Hg10 mi
12:50 AM50 °FClear.9 mph88%29.77 "Hg10 mi
12:20 AM52 °FClear.9 mph82%29.77 "Hg10 mi
11:20 PM
Sat, Apr 25
50 °FClear.7 mph82%29.77 "Hg10 mi
10:50 PM48 °FClear.7 mph94%29.77 "Hg10 mi
10:20 PM50 °FClear.9 mph88%29.77 "Hg10 mi
9:50 PM50 °FClear.8 mph88%29.77 "Hg10 mi
9:20 PM52 °FSunny.8 mph88%29.77 "Hg10 mi
8:50 PM52 °FPartly sunny.7 mph88%29.77 "HgN/A
8:20 PM54 °FPartly sunny.9 mph82%29.77 "HgN/A
7:50 PM54 °FBroken clouds.6 mph88%29.74 "HgN/A
7:20 PM54 °FBroken clouds.7 mph82%29.74 "HgN/A
Weather by CustomWeather, © 2015

See weather overviewHow to use our weather pages